Evansville, IN

6:26 PM CDT on September 21, 2017 (GMT -0500)
Evansville Regional

Weather History for KEVV - December, 2010

Change the Weather History Date:

Friday, December 10, 2010

  Actual Average Record
Temperature  
Mean Temperature 40 °F 37 °F  
Max Temperature 50 °F 45 °F 70 °F (1971)
Min Temperature 29 °F 28 °F -4 °F (1917)
Degree Days  
Heating Degree Days 25 28  
Month to date heating degree days 353 268  
Since 1 July heating degree days 1086 1129  
Cooling Degree Days 0 0  
Month to date cooling degree days 0 0  
Year to date cooling degree days 1904 1397  
Moisture  
Dew Point 25 °F    
Average Humidity 59    
Maximum Humidity 78    
Minimum Humidity 40    
Precipitation  
Precipitation 0.00 in 0.13 in 1.20 in (1964)
Month to date precipitation 0.13 1.32  
Year to date precipitation 31.11 42.87  
Snow  
Snow 0.00 in 0.10 in 0.70 in (1962)
Month to date snowfall 0.3 0.6  
Since 1 July snowfall 0.3 0.9  
Snow Depth 0.00 in    
Sea Level Pressure  
Sea Level Pressure 30.10 in    
Wind  
Wind Speed 8 mph (SSW)    
Max Wind Speed 15 mph    
Max Gust Speed 20 mph    
Visibility 10 miles    
Events      
T = Trace of Precipitation, MM = Missing Value Source: NWS Daily Summary

Daily Weather History Graph

Daily Weather History Graph

Search for Another Location

Airport or City:

Trip Planner

Search our weather history database for the weather conditions in past years. The results will help you decide how hot, cold, wet, or windy it might be!

Date:

Astronomy

Dec. 10, 2010 Rise Set
Actual Time 6:55 AM CST 4:30 PM CST
Civil Twilight 6:25 AM CST 4:59 PM CST
Nautical Twilight 5:53 AM CST 5:32 PM CST
Astronomical Twilight 5:21 AM CST 6:04 PM CST
Moon 10:25 AM CST (12/10) 9:32 PM CST (12/10)
Length of Visible Light 10h 33m
Length of Day
9h 35m
Waxing Crescent, 24% of the Moon is Illuminated
Dec 10
Waxing Crescent
Dec 13
First Quarter
Dec 21
Full
Dec 27
Last Quarter
Jan 4
New

Hourly Weather History & Observations

Time (CST) Temp. Windchill Dew Point Humidity Pressure Visibility Wind Dir Wind Speed Gust Speed Precip Events Conditions
12:54 AM 37.0 °F 28.5 °F 16.0 °F 42% 30.10 in 10.0 mi SSW 13.8 mph - N/A   Mostly Cloudy
1:54 AM 36.0 °F 27.5 °F 16.0 °F 44% 30.09 in 10.0 mi SSW 12.7 mph - N/A   Clear
2:54 AM 37.0 °F 28.9 °F 18.0 °F 46% 30.09 in 10.0 mi SSW 12.7 mph - N/A   Mostly Cloudy
3:54 AM 37.4 °F 30.3 °F 19.4 °F 48% 30.07 in 10.0 mi SSW 10.4 mph - N/A   Overcast
4:54 AM 35.1 °F 28.6 °F 21.0 °F 57% 30.08 in 10.0 mi SSW 8.1 mph - N/A   Overcast
5:54 AM 33.1 °F 25.5 °F 21.0 °F 61% 30.09 in 10.0 mi SSW 9.2 mph - N/A   Clear
6:54 AM 33.1 °F 26.1 °F 19.9 °F 59% 30.10 in 10.0 mi SSW 8.1 mph - N/A   Clear
7:54 AM 35.1 °F 28.6 °F 21.0 °F 57% 30.11 in 10.0 mi SSW 8.1 mph - N/A   Clear
8:54 AM 37.0 °F 31.0 °F 21.9 °F 54% 30.12 in 10.0 mi SSW 8.1 mph - N/A   Clear
9:54 AM 41.0 °F 34.3 °F 24.1 °F 51% 30.14 in 10.0 mi SSW 11.5 mph - N/A   Clear
10:54 AM 44.1 °F 38.6 °F 27.0 °F 51% 30.13 in 10.0 mi SSW 10.4 mph - N/A   Clear
11:54 AM 46.0 °F 40.6 °F 28.0 °F 50% 30.11 in 10.0 mi South 11.5 mph - N/A   Clear
12:54 PM 48.9 °F - 28.9 °F 46% 30.10 in 10.0 mi SSW 8.1 mph - N/A   Clear
1:54 PM 48.9 °F - 30.0 °F 48% 30.10 in 10.0 mi SSW 11.5 mph - N/A   Clear
2:54 PM 48.9 °F - 30.9 °F 50% 30.09 in 10.0 mi SSW 8.1 mph - N/A   Clear
3:54 PM 46.9 °F - 30.0 °F 52% 30.09 in 10.0 mi South 8.1 mph - N/A   Clear
4:54 PM 44.1 °F 40.8 °F 28.9 °F 55% 30.11 in 10.0 mi South 5.8 mph - N/A   Clear
5:54 PM 37.9 °F - 28.0 °F 68% 30.11 in 10.0 mi Calm Calm - N/A   Clear
6:54 PM 34.0 °F - 27.0 °F 75% 30.12 in 10.0 mi Calm Calm - N/A   Clear
7:54 PM 33.1 °F 30.0 °F 27.0 °F 78% 30.10 in 10.0 mi NE 3.5 mph - N/A   Clear
8:54 PM 30.0 °F - 25.0 °F 82% 30.10 in 10.0 mi Calm Calm - N/A   Clear
9:54 PM 35.1 °F 31.0 °F 28.9 °F 78% 30.08 in 10.0 mi SE 4.6 mph - N/A   Clear
10:54 PM 37.9 °F 32.7 °F 30.9 °F 76% 30.06 in 10.0 mi SE 6.9 mph - N/A   Clear
11:54 PM 39.0 °F 35.7 °F 30.9 °F 73% 30.06 in 10.0 mi South 4.6 mph - N/A   Clear